Theta_e
281 281 280 280 281 281 280 280 280 280 280 281 280 280 281 281 281 281 281 281 281 281 281 281 281 281 281 280 280 280 280 279 279 280 280 280 280 281 282 282 282 283
280 280 281 280 280 280 279 279 279 279 279 279 279 279 280 280 280 280 280 280 280 280 280 280 280 280 279 279 279 279 279 279 278 280 279 278 279 279 279 280 281 282
278 278 279 279 279 278 278 279 279 278 278 278 278 279 279 279 279 278 278 279 279 279 279 279 279 279 279 278 278 278 278 278 278 279 279 278 278 278 278 278 279 280
278 278 278 278 278 278 278 278 278 278 277 278 277 278 278 279 277 277 277 278 277 277 278 278 277 278 277 278 277 277 277 277 277 278 278 278 278 278 278 278 278 278
278 278 278 278 277 277 277 277 277 277 277 277 277 277 277 277 277 277 277 277 277 277 277 276 276 276 276 276 276 276 276 276 276 276 276 276 277 278 278 278 278 277
277 277 278 277 277 277 277 277 276 276 276 276 277 277 276 276 276 276 276 276 276 276 276 276 276 276 276 275 275 275 275 275 276 275 275 275 276 276 278 278 277 277
277 277 276 277 276 276 276 276 276 277 276 276 276 276 276 276 276 276 276 276 275 276 275 275 275 275 275 275 275 275 275 275 275 275 275 275 275 275 275 276 276 276
276 276 276 276 276 276 275 275 275 275 275 275 275 275 275 275 275 275 275 275 275 275 275 274 274 274 274 275 274 274 274 276 275 275 274 274 275 274 275 275 275 275
276 275 275 275 275 275 274 274 274 274 275 274 274 274 274 274 274 274 274 274 273 274 273 273 274 273 274 274 274 274 274 274 275 275 274 274 274 274 274 275 274 274
275 274 274 274 274 274 273 274 274 274 274 274 274 273 273 273 273 273 273 272 272 272 272 272 273 273 273 273 274 274 274 274 274 274 274 274 274 274 274 275 274 274
274 274 274 274 273 273 273 273 273 273 273 273 272 272 272 272 272 271 271 271 271 271 272 272 272 272 272 272 273 273 273 273 274 274 274 274 274 274 276 275 275 274
274 273 274 273 273 273 273 273 273 272 272 272 271 270 271 271 270 270 271 270 271 271 271 271 271 271 271 271 271 272 272 272 272 273 273 274 274 274 275 275 275 275
273 273 273 273 273 273 272 272 271 271 270 270 270 269 269 269 269 269 270 270 270 270 270 269 269 270 270 270 270 271 271 271 272 272 272 273 273 273 274 274 274 274
273 273 272 272 272 271 271 270 270 269 269 269 268 268 268 268 268 268 268 268 269 268 268 268 268 268 269 269 269 270 271 271 271 271 271 271 272 272 272 272 273 273
273 272 272 271 271 270 269 269 268 268 267 267 267 267 267 267 267 267 266 266 266 266 266 267 267 267 268 268 269 270 271 271 271 271 271 271 271 271 272 272 272 273
271 271 270 270 269 268 267 266 266 266 266 265 265 265 265 266 265 265 265 265 265 265 265 265 266 266 268 271 273 272 272 271 271 271 271 271 271 270 271 271 272 272
269 268 268 267 267 266 264 264 265 263 262 263 262 263 263 264 264 264 264 264 264 264 264 264 265 265 269 272 274 274 273 272 271 271 271 271 270 270 270 270 271 271
268 267 266 265 265 264 263 262 262 261 261 261 261 262 263 262 263 263 263 263 263 263 263 263 264 267 270 272 273 274 274 272 272 271 271 270 270 270 270 270 269 269
266 264 263 262 262 262 261 260 260 261 260 260 260 260 261 261 262 262 262 263 263 262 262 263 263 266 270 272 273 274 274 274 271 271 270 270 269 269 268 268 268 268
264 262 262 262 261 261 261 260 259 259 259 260 260 261 261 261 260 261 261 261 262 261 261 262 262 265 270 272 272 273 274 274 271 270 269 268 268 268 267 267 267 267
264 262 261 261 261 260 259 259 259 259 260 260 259 261 260 260 260 259 260 260 260 260 261 261 261 267 270 271 272 273 274 274 270 269 268 267 268 268 268 268 268 268
262 261 261 260 261 259 258 260 259 258 259 259 259 259 258 259 259 259 259 259 260 259 259 260 261 267 269 270 272 273 274 270 269 268 267 267 267 267 268 268 268 268
263 261 260 259 259 259 257 258 259 258 258 258 258 259 259 258 258 258 259 259 259 259 259 259 259 264 268 270 271 273 271 269 268 268 267 267 267 268 268 268 268 268
262 259 260 258 258 257 257 259 258 257 257 257 258 258 258 257 258 258 258 258 258 258 258 258 259 263 268 269 270 271 271 269 268 267 267 267 267 268 268 268 269 271
260 259 259 258 257 258 257 257 256 256 257 256 257 256 257 257 257 257 257 257 258 258 261 261 259 261 266 268 270 271 270 269 269 268 267 267 267 267 268 268 269 270
259 259 259 257 258 257 256 256 256 256 256 256 256 256 256 256 257 257 256 257 257 258 258 259 259 259 261 268 270 271 272 270 269 268 267 267 267 267 267 268 269 269
Wind_Speed
7 6 7 7 6 5 5 6 6 6 6 5 6 6 6 5 6 6 6 7 7 7 8 8 8 8 7 7 6 6 6 5 5 5 7 7 6 6 7 7 5 4
7 6 6 6 6 5 5 6 5 6 6 5 5 4 5 5 6 6 6 7 7 7 7 7 6 7 7 7 7 7 7 6 7 4 6 6 5 5 6 7 6 5
6 6 7 7 7 5 6 5 5 5 5 4 4 4 5 4 5 5 4 5 5 5 5 5 5 6 6 6 6 6 6 7 8 7 6 7 6 6 6 5 5 5
6 6 6 5 5 5 4 6 5 5 4 6 6 4 4 4 4 5 4 5 4 5 4 4 4 4 4 4 4 5 5 5 5 5 6 5 5 6 7 6 6 6
5 5 5 5 4 5 5 7 7 6 6 5 5 5 6 7 7 7 7 7 6 6 6 6 5 5 5 5 4 5 5 5 5 4 5 6 6 6 6 6 7 8
5 5 4 5 4 6 7 7 5 5 5 6 6 5 5 5 6 6 7 8 7 7 7 7 7 5 6 6 6 5 6 7 6 5 6 6 7 5 5 6 7 9
5 5 5 5 6 6 6 5 5 5 5 4 4 6 5 6 6 6 6 6 6 7 7 8 8 9 8 7 7 8 7 6 7 7 8 8 7 8 5 6 7 8
4 4 5 6 6 6 6 5 4 5 4 4 5 4 5 5 6 5 5 5 5 6 6 7 7 7 7 7 8 10 9 7 8 8 8 9 7 9 8 6 7 9
5 5 5 5 5 4 4 4 3 4 3 4 4 4 4 4 5 4 5 5 5 5 6 6 6 6 6 6 7 7 9 9 8 8 9 10 11 11 10 8 9 9
5 4 5 4 4 3 3 3 3 3 3 4 3 4 4 4 3 4 4 5 4 5 5 5 6 6 6 6 7 8 9 10 9 9 9 9 10 11 11 11 11 12
4 4 4 3 3 3 3 3 4 4 3 4 4 5 4 4 4 4 4 5 6 6 7 6 7 7 8 8 7 7 8 9 9 9 9 10 10 11 10 11 11 11
3 3 3 3 3 3 3 4 4 4 4 4 5 6 5 5 6 6 6 6 7 6 6 7 7 8 8 9 9 9 9 9 10 10 10 11 11 11 11 10 11 11
3 2 3 3 3 3 3 4 4 4 5 6 5 5 6 7 6 6 6 7 7 7 8 9 8 8 8 8 8 9 9 10 10 10 11 11 11 11 11 11 11 11
2 2 3 3 3 3 3 4 4 4 5 5 4 6 6 6 7 7 7 6 7 7 8 7 8 7 7 7 8 8 9 10 9 10 11 11 11 11 11 11 12 12
2 3 2 2 3 3 4 5 5 4 4 4 4 4 5 4 6 7 6 7 6 6 7 7 6 7 6 7 9 10 9 10 11 10 11 12 12 11 10 10 10 10
3 3 3 2 3 4 4 3 3 4 4 4 4 4 4 4 5 5 5 6 7 7 6 6 6 5 9 17 15 12 13 11 12 12 12 13 13 14 13 12 12 12
3 3 3 3 3 3 2 3 4 3 3 3 3 3 4 4 5 5 5 6 6 7 7 6 6 6 16 17 18 20 14 13 12 12 12 13 12 13 13 14 13 13
3 3 3 3 3 3 3 3 3 3 3 4 3 4 4 3 5 5 6 6 6 6 7 7 6 11 17 18 19 19 17 13 11 11 11 11 12 12 12 12 13 13
3 3 2 3 3 3 2 3 3 3 4 4 4 3 3 4 5 6 6 6 7 8 8 7 7 13 18 20 20 20 20 17 11 11 11 11 11 12 12 12 12 12
3 3 2 1 1 1 1 2 3 3 3 2 3 3 4 4 4 5 5 6 7 8 8 8 7 13 19 20 20 21 20 18 11 10 10 11 12 12 12 12 13 12
3 2 1 1 1 1 1 2 3 3 3 3 3 4 5 5 5 5 5 5 7 7 8 9 8 17 19 21 20 21 21 18 10 10 10 10 11 12 12 13 13 13
2 1 1 1 1 1 2 3 3 3 4 4 3 3 3 3 4 3 6 7 7 7 8 10 9 17 20 20 21 20 22 11 9 10 10 10 11 12 12 12 13 13
2 1 1 1 1 2 3 3 3 4 3 3 4 4 4 4 4 5 5 7 8 7 9 10 9 14 19 20 20 22 17 8 9 7 10 12 12 12 13 13 12 13
2 1 1 1 1 2 2 2 2 2 3 2 4 5 6 5 5 6 5 6 7 8 7 10 10 13 20 20 21 21 18 11 8 7 7 9 12 11 11 11 13 24
1 1 0 0 1 2 2 3 3 4 3 3 4 4 5 5 5 7 7 6 6 8 12 13 11 12 18 19 21 20 16 10 8 8 7 9 10 11 10 10 11 14
1 0 0 1 2 2 2 3 3 3 4 4 4 4 5 5 6 6 8 8 7 8 8 8 11 10 11 21 20 21 21 13 8 7 8 11 10 11 11 10 10 9
Wind_Direction
83 81 83 78 75 73 63 56 46 50 44 35 35 18 18 359 1 8 5 10 11 10 7 5 3 4 2 1 3 1 5 0 353 350 351 346 344 347 341 338 338 329
81 83 82 81 73 63 57 60 51 52 38 36 27 15 4 8 359 6 2 3 6 6 1 2 2 0 357 358 356 357 352 354 352 347 348 343 334 338 331 331 329 323
85 81 79 75 74 65 62 52 57 46 46 26 21 16 7 5 358 355 356 351 355 355 353 353 356 352 353 350 350 351 345 345 344 342 344 336 331 331 320 318 320 322
77 78 81 78 72 70 63 62 49 48 41 33 23 7 13 3 6 5 7 1 2 354 348 345 344 338 340 341 338 342 333 330 319 322 325 321 323 320 319 317 312 312
97 82 73 72 64 61 56 51 41 34 33 23 11 10 11 7 7 8 6 5 5 359 360 360 356 351 347 343 337 331 324 319 315 319 321 319 316 319 314 317 314 312
71 77 68 69 62 57 51 49 40 35 26 23 14 6 15 6 11 5 1 358 358 354 352 353 352 353 351 347 344 341 334 331 322 320 314 309 307 300 303 306 304 305
75 67 59 56 55 49 52 43 36 33 31 18 5 15 9 5 8 360 356 353 348 349 349 347 349 346 349 345 343 338 337 330 327 329 323 318 314 310 304 299 298 294
77 69 63 51 52 43 40 37 26 27 23 16 26 2 11 1 0 353 351 346 349 343 345 344 341 342 337 342 336 334 331 332 328 324 317 311 311 308 311 309 303 302
71 57 56 50 51 43 37 33 26 25 28 28 24 7 6 4 351 352 346 345 346 343 342 341 340 336 337 333 329 325 321 319 319 318 316 317 317 313 312 309 304 299
66 57 60 56 52 46 39 31 32 31 28 31 31 8 7 355 355 353 349 347 345 343 342 339 337 337 335 333 325 324 318 315 315 313 309 308 305 307 312 314 309 308
65 61 65 53 50 43 36 36 36 31 26 24 21 10 6 359 1 360 353 353 353 346 344 345 343 340 337 332 328 321 316 314 315 313 311 307 304 302 302 302 301 300
69 61 58 51 48 39 39 36 34 29 23 22 19 4 4 6 1 1 356 353 349 346 344 343 342 338 334 329 324 324 321 318 315 313 310 308 306 304 303 304 301 301
82 68 67 55 51 44 44 38 32 26 23 21 13 7 5 1 359 357 355 351 344 347 345 341 337 334 330 324 323 323 317 313 312 310 308 308 305 306 307 305 303 302
100 100 75 64 58 54 51 40 30 27 24 15 14 10 10 360 358 353 347 347 343 344 336 335 331 329 324 321 317 315 312 310 310 308 306 304 301 299 298 296 297 297
118 94 84 78 65 57 49 31 28 25 20 16 17 12 5 357 356 348 338 342 338 333 330 329 328 322 324 319 317 315 314 310 309 307 305 303 302 302 301 298 294 291
110 93 76 70 55 47 42 27 30 22 17 17 17 9 356 356 349 340 341 334 330 323 325 323 316 316 308 311 313 313 313 312 309 306 307 307 307 308 307 307 306 306
93 77 69 62 52 47 33 26 24 14 17 17 13 4 356 355 340 337 341 326 320 319 318 316 309 303 308 313 313 313 311 308 306 306 305 306 305 305 306 307 307 307
93 84 70 56 46 30 24 17 14 8 11 8 358 359 353 345 341 336 326 320 314 312 309 310 304 306 312 313 313 312 312 309 307 305 304 303 303 303 303 304 305 305
97 84 73 53 42 26 17 8 13 3 6 358 356 343 335 342 332 327 318 317 313 312 312 309 300 309 312 313 313 314 313 312 304 303 302 304 305 304 302 302 302 299
99 88 73 62 47 26 16 8 10 3 345 334 335 339 342 328 320 317 314 312 313 311 308 308 299 309 313 313 314 313 312 312 306 309 308 304 301 299 298 297 297 297
108 104 94 82 38 31 15 5 360 343 347 346 350 336 331 323 321 316 309 308 308 308 305 304 301 310 313 313 313 312 312 314 313 310 302 298 296 297 297 297 295 295
126 117 98 71 33 16 17 353 349 342 335 333 331 315 294 297 294 295 302 305 304 304 303 301 302 310 312 312 311 312 314 314 308 300 301 299 298 297 296 295 294 293
116 103 69 32 24 10 355 341 335 328 326 322 319 306 307 303 296 298 298 300 302 300 300 297 297 308 309 309 311 312 314 297 298 295 297 295 291 295 294 292 291 289
109 100 61 15 11 346 322 310 307 301 298 304 305 308 305 296 300 299 291 292 294 294 292 295 295 302 306 308 309 309 309 306 297 275 259 281 293 288 292 288 281 285
118 113 103 345 317 299 300 302 302 294 290 293 280 283 286 297 298 296 294 287 281 284 292 294 291 296 301 303 306 306 307 297 293 288 274 280 290 288 276 271 263 270
125 129 180 250 274 290 293 281 285 294 287 293 292 285 292 296 292 289 291 289 287 285 284 283 289 288 292 300 304 306 306 303 293 287 280 281 270 273 280 266 254 247